Location: Arroyo de Valdeoliva
(40.1604°N, 4.9878°W)
Time: 03:43:36
(UTC+00:00)

USA 290 - Pass Details

Date: 11 December 2025
Orbit: 396 x 415 km, 73.6° (Epoch: 30 October)

Event Time Altitude Azimuth Distance (km) Brightness Sun altitude
Rises 18:03:29 0° 329° (NNW) 2,348 6.2 -12.8°
Reaches altitude 10° 18:05:41 10° 318° (NW) 1,482 5.3 -13.2°
Maximum altitude 18:08:33 29° 256° (WSW) 779 4.5 -13.7°
Drops below altitude 10° 18:11:24 10° 194° (SSW) 1,469 5.4 -14.3°
Sets 18:13:34 0° 183° (S) 2,323 6.3 -14.7°
